THOR ABLESTAR DEB, 715

Orbit data source: Space-Track

THOR ABLESTAR DEB, 715 is space debris in LEO originally from a launch on Thu, 05 Dec 1963 UTC launched from the Air Force Western Test Range (AFWTR). Debris objects in space refer to the collection of defunct objects orbiting the Earth. Examples of debris include non-operational satellites, rocket bodies, and fragments generated from explosions, collisions, or faulty payload assembly.

Loading next visibility...
Identifier
715, 1963-049E
Orbit
LEO
Country
Flag of USUS
Related business
Manufacturer
Unknown
Mission
Spacecraft
Bus & Motor
Unknown
Mass
Unknown
Launch date (UTC)
1963-12-05 (62 years ago)
Launch vehicle
Unknown
Launch site
Air Force Western Test Range (AFWTR)
Object type
Payload
Rocket body
Debris
Shape & HBR
Unknown shape, 0.1 m
Radar Cross Section
Small (<0.1 m²)

Expand to show TLE details & history
Last TLE update: 5 hours ago

TLE from 5 hours ago
0 THOR ABLESTAR DEB
1   715U 63049E   25310.79601022  .00001222  00000-0  12612-2 0  9994
2   715  89.9093  79.6822 0031185 113.8577  45.5572 13.75222182 72816
Epoch: 2025-11-06T19:06Z
TLE epoch observation values (Epoch: 2025-11-06T19:06:15.283Z)
Latitude
20.3322°
Longitude
-73.1641°
Altitude
967.459 km
Speed
7.378 km/s
True Right ascension
17h 18m 35s
True Declination
20° 13' 25"
Sunlit
Object was in daylight at epoch
Visualization orbit readout
Latitude
Unknown
Longitude
Unknown
Altitude
Unknown
Speed
Unknown
Apparent Right ascension
Unknown
Apparent Declination
Unknown
Sunlit
N/A
Visualization observer readout
Local Sidereal Time
20:41:39
Azimuth
Unknown
Elevation
Unknown
Doppler factor
Unknown
Orbital elements
Apogee altitude
1,000.835 km
Perigee altitude
954.955 km
Semi-major axis
7,356.032 km
Eccentricity
0.00312
Inclination
89.9093°
RAAN
79.6822°
Arg. of periapsis
113.8577°
True anomaly
45.81303°
Mean anomaly
45.5572°
Eccentric anomaly
45.68505°
Mean motion
3.44015 °/min
Orbital period
104.65 mins
BSTAR
0.0012612
Loading maneuver chart data...
Computing Atmospheric mass density...
Loading historical data...
Loading historical data...
Loading historical data...
Loading historical data...
Loading historical data...
Loading historical data...
Loading historical data...

Documentation

Showing up to 5 results
|